Flag for U.S.A. Weather past 2 weeks in Post Falls, Idaho, U.S.A.

Now
37 °F

Sunny.


Feels Like: 30 °F
Forecast: 15 / 42 °F
Wind: 10 mph from West

Location: Coeur d'Alene Weather Reporting System

Current Time: Mar 3, 2015 at 5:20:02 PM

Latest Report: Mar 3, 2015 at 4:35 PM


Visibility: 10 mi

Pressure: 30.10 "Hg

Humidity: 33%

Dew point: 10 °F

Location of Post FallsLocation

Historic Weather in Post Falls — Graph

°F

Post Falls temperature yesterday

Maximum temperature yesterday: 39 °F (at 1:55 PM)
Minimum temperature yesterday: 27 °F (at 12:15 AM)
Average temperature yesterday: 32 °F

Past Weeks' High & Low Weather Summary

 TemperatureHumidityPressure
High50 °F (Feb 17, 2:35 PM)100% (Feb 21, 12:15 AM)30.48 "Hg (Feb 21, 12:15 AM)
Low16 °F (Feb 22, 5:55 AM)22% (Feb 28, 2:55 PM)29.76 "Hg (Feb 27, 1:55 PM)
Average33 °F62%30.16 "Hg
* Reported Feb 16 4:35 PM — Mar 3 4:15 PM, Post Falls, Weather by CustomWeather, © 2015

Note: Actual official high and low records may vary slightly from our data, if they occured in-between our weather recording intervals... More about our weather records

Advertising

Post Falls weather history for previous 24 hours

 ConditionsComfort  
Time TempWeatherWind HumidityBarometerVisibility
4:15 PM
Tue, Mar 3
37 °FSunny.14 mph33%30.09 "Hg10 mi
3:55 PM37 °FSunny.13 mph33%30.10 "Hg10 mi
3:35 PM37 °FSunny.9 mph33%30.10 "Hg10 mi
3:15 PM37 °FPassing clouds.10 mph33%30.10 "Hg10 mi
2:55 PM37 °FScattered clouds.12 mph33%30.10 "Hg10 mi
2:35 PM37 °FPartly sunny.6 mph35%30.10 "Hg10 mi
2:15 PM37 °FPartly sunny.No wind35%30.10 "Hg10 mi
1:55 PM37 °FScattered clouds.8 mph33%30.11 "Hg10 mi
1:35 PM36 °FSunny.No wind38%30.11 "Hg10 mi
1:15 PM36 °FSunny.No wind38%30.12 "Hg10 mi
12:55 PM36 °FSunny.No wind35%30.13 "Hg10 mi
12:35 PM34 °FSunny.No wind38%30.14 "Hg10 mi
12:15 PM34 °FSunny.3 mph38%30.14 "Hg10 mi
11:55 AM34 °FSunny.5 mph38%30.15 "Hg10 mi
11:35 AM34 °FSunny.5 mph38%30.15 "Hg10 mi
11:15 AM32 °FSunny.6 mph37%30.15 "Hg10 mi
10:55 AM30 °FSunny.No wind43%30.15 "Hg10 mi
10:35 AM30 °FSunny.No wind43%30.16 "Hg10 mi
10:15 AM30 °FSunny.5 mph47%30.17 "Hg10 mi
9:55 AM30 °FSunny.6 mph47%30.17 "Hg10 mi
9:35 AM28 °FSunny.5 mph51%30.17 "Hg10 mi
9:15 AM28 °FSunny.9 mph51%30.18 "Hg10 mi
8:55 AM27 °FSunny.9 mph54%30.17 "Hg10 mi
8:35 AM27 °FSunny.12 mph50%30.17 "Hg10 mi
8:15 AM25 °FSunny.12 mph50%30.17 "Hg10 mi
7:55 AM25 °FSunny.8 mph63%30.16 "Hg10 mi
7:35 AM23 °FSunny.9 mph50%30.16 "Hg10 mi
7:15 AM21 °FSunny.7 mph63%30.15 "Hg10 mi
6:55 AM21 °FSunny.7 mph58%30.15 "Hg10 mi
6:35 AM21 °FSunny.9 mph58%30.15 "Hg10 mi
6:15 AM21 °FClear.7 mph58%30.15 "Hg10 mi
5:55 AM21 °FClear.6 mph54%30.16 "Hg10 mi
5:35 AM21 °FClear.9 mph58%30.15 "Hg10 mi
5:15 AM23 °FClear.13 mph58%30.15 "Hg10 mi
4:55 AM23 °FClear.14 mph54%30.15 "Hg10 mi
4:35 AM23 °FClear.10 mph58%30.14 "Hg10 mi
4:15 AM21 °FClear.10 mph58%30.14 "Hg10 mi
3:55 AM23 °FClear.12 mph63%30.14 "Hg10 mi
3:35 AM21 °FClear.10 mph54%30.13 "Hg10 mi
3:15 AM21 °FClear.10 mph63%30.12 "Hg10 mi
2:55 AM25 °FClear.12 mph54%30.12 "Hg10 mi
2:35 AM25 °FClear.14 mph54%30.11 "Hg10 mi
2:15 AM25 °FClear.12 mph59%30.11 "Hg10 mi
1:55 AM25 °FClear.14 mph59%30.11 "Hg10 mi
1:35 AM27 °FClear.15 mph54%30.10 "Hg10 mi
1:15 AM27 °FClear.12 mph54%30.09 "Hg10 mi
12:55 AM27 °FClear.13 mph54%30.09 "Hg10 mi
12:35 AM27 °FClear.12 mph59%30.08 "Hg10 mi
12:15 AM27 °FClear.12 mph64%30.07 "Hg10 mi
11:55 PM
Mon, Mar 2
27 °FClear.13 mph59%30.06 "Hg10 mi
11:35 PM27 °FPassing clouds.10 mph64%30.05 "Hg10 mi
11:15 PM27 °FPassing clouds.10 mph59%30.03 "Hg10 mi
10:55 PM28 °FMostly cloudy.14 mph59%30.02 "Hg10 mi
10:35 PM28 °FPassing clouds.14 mph59%30.02 "Hg10 mi
10:15 PM28 °FPassing clouds.14 mph59%30.02 "Hg10 mi
9:55 PM30 °FPassing clouds.17 mph55%30.01 "Hg10 mi
9:35 PM30 °FPassing clouds.20 mph59%30.00 "Hg10 mi
9:15 PM30 °FPassing clouds.21 mph59%29.99 "Hg10 mi
8:55 PM30 °FPassing clouds.21 mph64%29.98 "Hg10 mi
8:35 PM30 °FPassing clouds.18 mph69%29.97 "Hg10 mi
8:15 PM30 °FPassing clouds.14 mph69%29.96 "Hg10 mi
7:55 PM30 °FMostly cloudy.17 mph69%29.95 "Hg7 mi
7:35 PM32 °FOvercast.15 mph75%29.95 "Hg8 mi
6:55 PM32 °FPartly cloudy.15 mph75%29.93 "Hg10 mi
6:35 PM32 °FPassing clouds.14 mph80%29.92 "Hg10 mi
6:15 PM34 °FPassing clouds.16 mph70%29.91 "Hg10 mi
5:55 PM34 °FPassing clouds.12 mph70%29.90 "Hg10 mi
5:35 PM36 °FPartly cloudy.10 mph65%29.89 "Hg10 mi
5:15 PM36 °FScattered clouds.10 mph65%29.88 "Hg10 mi
Weather by CustomWeather, © 2015

See weather overviewHow to use our weather pages